Location: *
(40.7190°N, 4.2480°W)
Time: 02:36:16
(UTC+00:00)

Cosmos 1842 Rocket - Pass Details

Date: 18 February 2020
Orbit: 604 x 635 km, 82.5° (Epoch: 05 April)

Event Time Altitude Azimuth Distance (km) Brightness Sun altitude
Exits shadow 05:40:12 24° 228° (SW) 1,326 4.8 -17.3°
Maximum altitude 05:42:24 39° 282° (WNW) 945 4.0 -16.8°
Drops below altitude 10° 05:46:38 10° 352° (N) 2,027 6.1 -16.0°
Sets 05:49:01 0° 0° (N) 2,941 7.0 -15.6°
